Location: *
(47.6569°N, 7.4256°E)
Time: 01:33:17
(UTC+00:00)

USA 229 - Pass Details

Date: 14 December 2019
Orbit: 994 x 1218 km, 63.4° (Epoch: 28 January)

Event Time Altitude Azimuth Distance (km) Brightness Sun altitude
Rises 16:49:00 0° 317° (NW) 3,902 6.9 -11.2°
Reaches altitude 10° 16:51:48 10° 325° (NW) 2,978 6.2 -11.7°
Maximum altitude 16:58:30 42° 34° (NE) 1,601 4.3 -12.7°
Enters shadow 17:05:05 12° 102° (ESE) 2,980 5.5 -13.8°
